Gainesville, GA

9:45 PM EDT on July 27, 2017 (GMT -0400)
Gilmer Memorial

Weather History for KGVL - September, 2011

Change the Weather History Date:

Monday, September 19, 2011

  Actual Average Record
Temperature  
Mean Temperature 66 °F 71 °F  
Max Temperature 70 °F 80 °F 95 °F (1954)
Min Temperature 61 °F 62 °F 46 °F (1937)
Degree Days  
Heating Degree Days 0 0  
Month to date heating degree days 0  
Since 1 July heating degree days 0  
Cooling Degree Days 0 6  
Month to date cooling degree days 166  
Year to date cooling degree days 1492  
Growing Degree Days 16 (Base 50)    
Moisture  
Dew Point 55 °F    
Average Humidity 70    
Maximum Humidity 78    
Minimum Humidity 59    
Precipitation  
Precipitation 0.00 in 0.15 in 1.59 in (1968)
Month to date precipitation 2.95  
Year to date precipitation 39.20  
Sea Level Pressure  
Sea Level Pressure 30.17 in    
Wind  
Wind Speed 8 mph (East)    
Max Wind Speed 13 mph    
Max Gust Speed 18 mph    
Visibility 10 miles    
Events      
T = Trace of Precipitation, MM = Missing Value Source: NWS Daily Summary

Daily Weather History Graph

Daily Weather History Graph

Search for Another Location

Airport or City:

Trip Planner

Search our weather history database for the weather conditions in past years. The results will help you decide how hot, cold, wet, or windy it might be!

Date:

Astronomy

Sep. 19, 2011 Rise Set
Actual Time 7:21 AM EDT 7:36 PM EDT
Civil Twilight 6:55 AM EDT 8:01 PM EDT
Nautical Twilight 6:26 AM EDT 8:31 PM EDT
Astronomical Twilight 5:56 AM EDT 9:00 PM EDT
Moon No Moon Rise 1:52 PM EDT (9/19)
Length of Visible Light 13h 05m
Length of Day
12h 15m
Waning Gibbous, 59% of the Moon is Illuminated
Sep 19
Waning Gibbous
Sep 20
Last Quarter
Sep 27
New
Oct 3
First Quarter
Oct 11
Full

Hourly Weather History & Observations

Time (EDT) Temp. Dew Point Humidity Pressure Visibility Wind Dir Wind Speed Gust Speed Precip Events Conditions
12:14 AM 64.4 °F 55.4 °F 73% 30.27 in 10.0 mi East 8.1 mph - N/A   Overcast
12:53 AM 63.0 °F 54.0 °F 72% 30.22 in 10.0 mi East 8.1 mph - N/A   Overcast
1:53 AM 62.1 °F 54.0 °F 75% 30.23 in 10.0 mi East 8.1 mph - N/A   Overcast
2:53 AM 62.1 °F 54.0 °F 75% 30.20 in 10.0 mi East 9.2 mph - N/A   Overcast
3:53 AM 62.1 °F 53.1 °F 72% 30.19 in 10.0 mi East 9.2 mph 16.1 mph N/A   Overcast
5:53 AM 61.0 °F 53.1 °F 75% 30.19 in 10.0 mi East 9.2 mph - N/A   Overcast
7:53 AM 61.0 °F 53.1 °F 75% 30.23 in 10.0 mi East 5.8 mph - N/A   Overcast
8:53 AM 61.0 °F 53.1 °F 75% 30.22 in 10.0 mi ENE 9.2 mph - N/A   Overcast
9:53 AM 62.1 °F 53.1 °F 72% 30.22 in 10.0 mi ENE 10.4 mph - N/A   Overcast
10:53 AM 64.0 °F 54.0 °F 70% 30.21 in 10.0 mi East 11.5 mph - N/A   Overcast
11:53 AM 66.0 °F 54.0 °F 65% 30.20 in 10.0 mi ENE 12.7 mph 18.4 mph N/A   Overcast
12:53 PM 66.9 °F 54.0 °F 63% 30.19 in 10.0 mi East 11.5 mph - N/A   Overcast
1:53 PM 66.9 °F 55.0 °F 66% 30.17 in 10.0 mi ESE 5.8 mph - N/A   Overcast
2:53 PM 68.0 °F 55.0 °F 63% 30.14 in 10.0 mi Variable 4.6 mph - N/A   Overcast
3:53 PM 69.1 °F 55.0 °F 61% 30.12 in 10.0 mi East 8.1 mph - N/A   Overcast
4:53 PM 70.0 °F 55.0 °F 59% 30.10 in 10.0 mi East 8.1 mph - N/A   Mostly Cloudy
5:30 PM 69.8 °F 55.4 °F 60% 30.13 in 10.0 mi East 8.1 mph - N/A   Partly Cloudy
5:53 PM 69.1 °F 55.9 °F 63% 30.10 in 10.0 mi ENE 6.9 mph - N/A   Partly Cloudy
6:53 PM 66.9 °F 55.9 °F 68% 30.11 in 10.0 mi ENE 6.9 mph - N/A   Clear
7:53 PM 64.9 °F 55.9 °F 73% 30.11 in 10.0 mi ENE 6.9 mph - N/A   Clear
8:53 PM 64.0 °F 55.9 °F 75% 30.12 in 10.0 mi ENE 6.9 mph - N/A   Partly Cloudy
9:53 PM 63.0 °F 55.0 °F 75% 30.12 in 10.0 mi NE 5.8 mph - N/A   Scattered Clouds
10:53 PM 62.1 °F 55.0 °F 78% 30.13 in 10.0 mi ENE 6.9 mph - N/A   Mostly Cloudy
11:53 PM 62.1 °F 55.0 °F 78% 30.12 in 10.0 mi ENE 8.1 mph - N/A   Clear